Regional Weather Roundup
Issued by NWS

Home | Current Version | Previous Version | Text Only | Print | Product List | Glossary On
Versions: 1 2 3 4 5 6 7 8 9 10 11 12 13 14 15 16 17 18 19 20 21 22 23 24 25 26 27 28 29 30 31 32 33 34 35 36 37 38 39 40 41 42 43 44 45 46 47 48 49 50
000
ASUS45 KABQ 210410
RWRNM
WEATHER ROUNDUP FOR NEW MEXICO
NATIONAL WEATHER SERVICE ALBUQUERQUE NM
1000 PM MDT WED AUG 20 2014

NOTE: "FAIR" MEANS FEW OR NO CLOUDS BELOW 12,000 FEET AGL WITH NO
       SIGNIFICANT WEATHER OR OBSTRUCTIONS TO VISION.

      THIS PRODUCT IS RELEASED AS TWO VERSIONS.  ONE VERSION NEAR
      THE TOP OF THE HOUR CONTAINING PRELIMINARY DATA FROM ALBUQUERQUE
      AND OTHER STATIONS.  A FINAL VERSION WITH ADDITIONAL DATA IS
      ISSUED ABOUT 10 MINUTES AFTER THE HOUR.

NMZ501-503-504-510>518-210500-
NORTHWEST PLATEAU/NORTHCENTRAL MOUNTAINS

CITY           SKY/WX    TMP DP  RH WIND       PRES   REMARKS
FARMINGTON     CLEAR     71  36  27 NW6       30.07R
LOS ALAMOS     CLEAR     69  36  30 W10       30.19R
SANTA FE       CLEAR     68  41  37 CALM      30.11R
TAOS           CLEAR     63  36  36 CALM      30.19R
ANGEL FIRE     FAIR      53  41  65 CALM      30.28R

$$
NMZ402-403-502-505>509-210500-
WESTCENTRAL MOUNTAINS/SOUTHWEST MOUNTAINS

CITY           SKY/WX    TMP DP  RH WIND       PRES   REMARKS
GALLUP         MOCLDY    65  38  36 SW5       30.18R
SILVER CITY    CLEAR     68  48  49 NW8       30.15R

$$
NMZ407-409-411-412-210500-
SOUTHERN DESERTS

CITY           SKY/WX    TMP DP  RH WIND       PRES   REMARKS
LORDSBURG      FAIR      72  52  49 W5        30.06R
DEMING         CLEAR     76  49  38 W12       30.05R
LAS CRUCES     CLEAR     78  43  28 W20       30.04R
HOLLOMAN AFB   PTCLDY    81  51  35 SE6       29.97R
ALAMOGORDO     PTCLDY    77  50  38 E5        29.99R
T OR C         CLEAR     78  47  33 NW9       30.02R

$$
NMZ519>523-210500-
CENTRAL VALLEYS/CENTRAL HIGHLANDS

CITY           SKY/WX    TMP DP  RH WIND       PRES   REMARKS
ALBUQUERQUE    CLEAR     79  42  26 NW5       30.06R
DOUBLE EAGLE   PTCLDY    70  43  37 W5        30.10R
MORIARTY ARPT  FAIR      60  46  61 CALM      30.13R
CLINES CORNERS CLEAR     62  44  51 W10       30.17R
BELEN          FAIR      69  46  43 NW7       30.06R
SOCORRO        FAIR      76  44  31 SW7       30.04R

$$
NMZ524>526-539-540-210500-
SOUTHCENTRAL MOUNTAINS

CITY           SKY/WX    TMP DP  RH WIND       PRES   REMARKS
RUIDOSO        NOT AVBL

$$
NMZ527>531-210500-
NORTHEAST HIGHLANDS/NORTHEAST PLAINS

CITY           SKY/WX    TMP DP  RH WIND       PRES   REMARKS
LAS VEGAS      CLEAR     63  51  65 CALM      30.14R
RATON          CLEAR     63  51  65 N8        30.06R
CLAYTON        CLEAR     77  53  43 S14       29.97R

$$
NMZ532>537-210500-
EASTCENTRAL PLAINS

CITY           SKY/WX    TMP DP  RH WIND       PRES   REMARKS
TUCUMCARI      CLEAR     82  54  37 S15       29.93R
CANNON AFB     PTCLDY    74  59  59 S9        30.01R
CLOVIS AIRPORT   N/A     73  59  60 SE14      30.02R

$$
NMZ028-029-538-210500-
SOUTHEAST PLAINS

CITY           SKY/WX    TMP DP  RH WIND       PRES   REMARKS
ROSWELL        PTCLDY    82  59  45 SW12      29.94R
ARTESIA        MOCLDY    79  63  57 W8        29.95R
CARLSBAD       PTCLDY    84  59  42 S13       29.93R
HOBBS          PTCLDY    77  59  53 S21       30.00R


$$



USA.gov is the U.S. government's official web portal to all federal, state and local government web resources and services.